C/2013 V4 ( Catalina )

Japanese version
Home page
Updated on February 13, 2018

---------------------------------------------------------------------

* Profile

Discovery Date November 9, 2013
Magnitude 17.7 mag
Discoverer R. E. Hill (Catalina Sky Survey)

* Pictures

* Orbital Elements

Epoch 2015 Oct. 25.0 TT = JDT 2457320.5
T 2015 Oct. 7.60063 TT                                  MPCW
q   5.1854121            (2000.0)            P               Q
z  -0.0004973      Peri.   40.44926     +0.22786070     -0.60307991
 +/-0.0000002      Node    55.62129     +0.46389247     -0.62303031
e   1.0025786      Incl.   67.85538     +0.85608602     +0.49812434
From 2294 observations 2013 Oct. 23-2018 Jan. 18, mean residual 0".5.

* Finding Charts

* Magnitudes Graph

        m1 = 5.0 + 5 log d + 10.0 log r

---------------------------------------------------------------------

The orbital elements are published on M.P.E.C. 2018-B155.
The charts are made with StellaNavigator Ver.8 (AstroArts).
The magnitudes graphs are made with Comet for Windows.

---------------------------------------------------------------------

Copyright(C) Seiichi Yoshida (comet@aerith.net). All rights reserved.